Weather History for KGEG - April, 2014

Change the Weather History Date:

Tuesday, April 29, 2014

  Actual Average Record
Temperature  
Mean Temperature 49 °F 50 °F  
Max Temperature 63 °F 61 °F 90 °F (1926)
Min Temperature 34 °F 39 °F 25 °F (1954)
Degree Days  
Heating Degree Days 16 15  
Month to date heating degree days 528 526  
Since 1 July heating degree days 6351 6122  
Cooling Degree Days 0 0  
Month to date cooling degree days 0 0  
Year to date cooling degree days 0 0  
Moisture  
Dew Point 30 °F    
Average Humidity 56    
Maximum Humidity 89    
Minimum Humidity 23    
Precipitation  
Precipitation 0.00 in 0.03 in 0.58 in (1948)
Month to date precipitation 1.14 1.24  
Year to date precipitation 6.84 5.97  
Snow  
Snow 0.00 in 0.00 in 0.40 in (1969)
Month to date snowfall T 1.0  
Since 1 July snowfall 37.6 44.8  
Snow Depth 0.00 in    
Sea Level Pressure  
Sea Level Pressure 30.58 in    
Wind  
Wind Speed 4 mph (NE)    
Max Wind Speed 12 mph    
Max Gust Speed 15 mph    
Visibility 10 miles    
Events      
T = Trace of Precipitation, MM = Missing Value Source: NWS Daily Summary

Daily Weather History Graph

Daily Weather History Graph

Search for Another Location

Airport or City:

Trip Planner

Search our weather history database for the weather conditions in past years. The results will help you decide how hot, cold, wet, or windy it might be!

Date:

Astronomy

Apr. 29, 2014 Rise Set
Actual Time 5:36 AM PDT 7:59 PM PDT
Civil Twilight 5:01 AM PDT 8:33 PM PDT
Nautical Twilight 4:19 AM PDT 9:16 PM PDT
Astronomical Twilight 3:30 AM PDT 10:06 PM PDT
Moon 5:57 AM PDT (4/29) 8:46 PM PDT (4/29)
Length of Visible Light 15h 31m
Length of Day
14h 23m
New Moon, 0% of the Moon is Illuminated
Apr 29
New Moon
May 6
First Quarter
May 14
Full
May 21
Last Quarter
May 28
New

Hourly Weather History & Observations

Time (PDT) Temp. Windchill Dew Point Humidity Pressure Visibility Wind Dir Wind Speed Gust Speed Precip Events Conditions
12:53 AM 39.0 °F 34.8 °F 27.0 °F 62% 30.50 in 10.0 mi SSE 5.8 mph - N/A   Clear
1:53 AM 39.0 °F 36.8 °F 28.9 °F 67% 30.51 in 10.0 mi East 3.5 mph - N/A   Clear
2:53 AM 37.0 °F 34.5 °F 28.9 °F 73% 30.53 in 10.0 mi SE 3.5 mph - N/A   Clear
3:53 AM 35.1 °F 31.0 °F 28.9 °F 78% 30.56 in 10.0 mi ENE 4.6 mph - N/A   Clear
4:53 AM 35.1 °F 32.2 °F 30.9 °F 85% 30.57 in 10.0 mi ENE 3.5 mph - N/A   Clear
5:53 AM 33.8 °F - 30.2 °F 87% 30.56 in 10.0 mi Calm Calm - N/A   Partly Cloudy
6:53 AM 37.0 °F 30.4 °F 32.0 °F 82% 30.61 in 10.0 mi ENE 9.2 mph - N/A   Partly Cloudy
7:53 AM 39.2 °F 33.6 °F 33.8 °F 81% 30.60 in 10.0 mi ENE 8.1 mph - N/A   Partly Cloudy
8:53 AM 44.1 °F 39.5 °F 34.0 °F 68% 30.64 in 10.0 mi ENE 8.1 mph - N/A   Partly Cloudy
9:53 AM 48.0 °F - 34.0 °F 58% 30.65 in 10.0 mi NE 6.9 mph - N/A   Partly Cloudy
10:53 AM 53.1 °F - 32.0 °F 45% 30.65 in 10.0 mi Variable 4.6 mph - N/A   Scattered Clouds
11:53 AM 55.0 °F - 28.9 °F 37% 30.64 in 10.0 mi Calm Calm - N/A   Scattered Clouds
12:53 PM 57.0 °F - 27.0 °F 32% 30.63 in 10.0 mi Variable 6.9 mph - N/A   Partly Cloudy
1:53 PM 60.8 °F - 26.6 °F 27% 30.59 in 10.0 mi NNE 3.5 mph - N/A   Partly Cloudy
2:53 PM 61.0 °F - 26.1 °F 26% 30.61 in 10.0 mi NE 8.1 mph - N/A   Partly Cloudy
3:53 PM 61.0 °F - 24.1 °F 24% 30.60 in 10.0 mi Calm Calm - N/A   Partly Cloudy
4:53 PM 63.0 °F - 25.0 °F 24% 30.58 in 10.0 mi Calm Calm - N/A   Partly Cloudy
5:53 PM 63.0 °F - 25.0 °F 24% 30.57 in 10.0 mi ENE 6.9 mph - N/A   Scattered Clouds
6:53 PM 61.0 °F - 27.0 °F 27% 30.56 in 10.0 mi North 3.5 mph - N/A   Scattered Clouds
7:53 PM 57.0 °F - 32.0 °F 39% 30.55 in 10.0 mi North 5.8 mph - N/A   Scattered Clouds
8:53 PM 54.0 °F - 30.9 °F 41% 30.55 in 10.0 mi NNW 3.5 mph - N/A   Partly Cloudy
9:53 PM 54.0 °F - 32.0 °F 43% 30.54 in 10.0 mi Calm Calm - N/A   Partly Cloudy
10:53 PM 46.0 °F - 34.0 °F 63% 30.55 in 10.0 mi Calm Calm - N/A   Partly Cloudy
11:07 PM 46.0 °F - 33.1 °F 61% 30.54 in 10.0 mi Calm Calm - N/A   Clear
11:53 PM 44.1 °F - 32.0 °F 63% 30.56 in 10.0 mi Calm Calm - N/A   Partly Cloudy